• In Hungary
  • List of Countries
  • For 7 days
  • Water Temperature
  • Satellite Maps
  • Weather Map
  • News
  • Weather Widgets
  • user-avatar
    Login

    Hourly Weather Zaroevo

    Today, 23 September, Sunday

    Time Temperature Precipitation Wind Pressure Humidity
    00:00 +9°C° 0.5 mm 3 mps 735 mmHg 93%
    01:00 +9°C° 0.5 mm 3 mps 735 mmHg 93%
    02:00 +9°C° 0.5 mm 3 mps 735 mmHg 93%
    03:00 +9°C° 0.1 mm 3 mps 734 mmHg 93%
    04:00 +9°C° 0.1 mm 3 mps 734 mmHg 93%
    05:00 +9°C° 0.1 mm 3 mps 734 mmHg 93%
    06:00 +9°C° 0 mm 3 mps 734 mmHg 92%
    07:00 +9°C° 0 mm 3 mps 734 mmHg 91%
    08:00 +8°C° 0 mm 4 mps 734 mmHg 90%
    09:00 +8°C° 0 mm 4 mps 734 mmHg 87%
    10:00 +10°C° 0 mm 4 mps 734 mmHg 84%
    11:00 +10°C° 0 mm 4 mps 734 mmHg 80%
    12:00 +11°C° 0.1 mm 4 mps 733 mmHg 76%
    13:00 +11°C° 0.1 mm 4 mps 733 mmHg 72%
    14:00 +12°C° 0.1 mm 5 mps 733 mmHg 68%
    15:00 +11°C° 0.3 mm 4 mps 733 mmHg 72%
    16:00 +11°C° 0.3 mm 3 mps 733 mmHg 76%
    17:00 +10°C° 0.3 mm 3 mps 733 mmHg 81%
    18:00 +9°C° 0.1 mm 3 mps 733 mmHg 84%
    19:00 +8°C° 0.1 mm 3 mps 733 mmHg 87%
    20:00 +8°C° 0.1 mm 3 mps 733 mmHg 91%
    21:00 +7°C° 0 mm 3 mps 733 mmHg 91%
    22:00 +7°C° 0 mm 3 mps 733 mmHg 92%
    23:00 +7°C° 0 mm 3 mps 733 mmHg 93%

    Tomorrow, 24 September, Monday

    Time Temperature Precipitation Wind Pressure Humidity
    00:00 +7°C° 0 mm 3 mps 733 mmHg 94%
    01:00 +5°C° 0 mm 3 mps 733 mmHg 95%
    02:00 +5°C° 0 mm 3 mps 734 mmHg 96%
    03:00 +6°C° 0 mm 2 mps 733 mmHg 96%
    04:00 +6°C° 0 mm 2 mps 733 mmHg 97%
    05:00 +5°C° 0 mm 2 mps 733 mmHg 97%
    06:00 +6°C° 0 mm 2 mps 733 mmHg 95%
    07:00 +7°C° 0 mm 2 mps 733 mmHg 93%
    08:00 +7°C° 0 mm 2 mps 733 mmHg 91%
    09:00 +8°C° 0.1 mm 2 mps 732 mmHg 89%
    10:00 +9°C° 0.1 mm 2 mps 732 mmHg 87%
    11:00 +9°C° 0.1 mm 2 mps 732 mmHg 85%
    12:00 +9°C° 0.8 mm 2 mps 731 mmHg 87%
    13:00 +9°C° 0.8 mm 2 mps 731 mmHg 88%
    14:00 +9°C° 0.8 mm 2 mps 730 mmHg 89%
    15:00 +8°C° 0.9 mm 2 mps 730 mmHg 91%
    16:00 +8°C° 0.9 mm 2 mps 729 mmHg 93%
    17:00 +7°C° 0.9 mm 2 mps 729 mmHg 95%
    18:00 +7°C° 0.9 mm 2 mps 729 mmHg 95%
    19:00 +7°C° 0.9 mm 3 mps 728 mmHg 95%
    20:00 +7°C° 0.9 mm 3 mps 728 mmHg 95%
    21:00 +6°C° 0.8 mm 4 mps 728 mmHg 95%
    22:00 +6°C° 0.8 mm 4 mps 728 mmHg 94%
    23:00 +6°C° 0.8 mm 5 mps 727 mmHg 93%

    Day after tomorrow, 25 September, Tuesday

    Time Temperature Precipitation Wind Pressure Humidity
    00:00 +6°C° 0.5 mm 5 mps 728 mmHg 93%
    01:00 +5°C° 0.5 mm 6 mps 728 mmHg 92%
    02:00 +5°C° 0.5 mm 6 mps 728 mmHg 91%
    03:00 +4°C° 0.3 mm 6 mps 728 mmHg 91%
    04:00 +4°C° 0.3 mm 6 mps 728 mmHg 91%
    05:00 +4°C° 0.3 mm 6 mps 729 mmHg 91%
    06:00 +4°C° 0.4 mm 6 mps 729 mmHg 90%
    07:00 +4°C° 0.4 mm 6 mps 730 mmHg 89%
    08:00 +4°C° 0.4 mm 6 mps 731 mmHg 88%
    09:00 +4°C° 0.2 mm 6 mps 732 mmHg 86%
    10:00 +4°C° 0.2 mm 6 mps 732 mmHg 84%
    11:00 +5°C° 0.2 mm 7 mps 733 mmHg 82%
    12:00 +5°C° 0.1 mm 7 mps 734 mmHg 79%
    13:00 +5°C° 0.1 mm 6 mps 735 mmHg 76%
    14:00 +5°C° 0.1 mm 6 mps 735 mmHg 73%
    15:00 +5°C° 0.1 mm 6 mps 736 mmHg 73%
    16:00 +5°C° 0.1 mm 6 mps 737 mmHg 73%
    17:00 +4°C° 0.1 mm 6 mps 738 mmHg 73%
    18:00 +5°C° 0 mm 5 mps 738 mmHg 71%
    19:00 +3°C° 0 mm 5 mps 739 mmHg 69%
    20:00 +3°C° 0 mm 4 mps 740 mmHg 66%
    21:00 +3°C° 0 mm 4 mps 741 mmHg 67%
    22:00 +1°C° 0 mm 4 mps 741 mmHg 67%
    23:00 +1°C° 0 mm 4 mps 742 mmHg 68%

    26 September, Wednesday

    Time Temperature Precipitation Wind Pressure Humidity
    00:00 0°C° 0 mm 4 mps 742 mmHg 71%
    01:00 +1°C° 0 mm 3 mps 743 mmHg 74%
    02:00 +1°C° 0 mm 3 mps 743 mmHg 77%
    03:00 +1°C° 0 mm 3 mps 744 mmHg 81%
    04:00 +1°C° 0 mm 3 mps 744 mmHg 85%
    05:00 +1°C° 0 mm 3 mps 744 mmHg 89%
    06:00 +2°C° 0 mm 3 mps 744 mmHg 84%
    07:00 +3°C° 0 mm 3 mps 745 mmHg 78%
    08:00 +4°C° 0 mm 4 mps 745 mmHg 73%
    09:00 +5°C° 0 mm 4 mps 745 mmHg 68%
    10:00 +7°C° 0 mm 4 mps 745 mmHg 62%
    11:00 +8°C° 0 mm 5 mps 745 mmHg 57%
    12:00 +9°C° 0 mm 5 mps 744 mmHg 57%
    13:00 +10°C° 0 mm 5 mps 743 mmHg 58%
    14:00 +10°C° 0 mm 5 mps 743 mmHg 58%
    15:00 +9°C° 0 mm 5 mps 742 mmHg 63%
    16:00 +9°C° 0 mm 5 mps 741 mmHg 69%
    17:00 +8°C° 0 mm 5 mps 741 mmHg 74%
    18:00 +8°C° 0.5 mm 6 mps 740 mmHg 78%
    19:00 +6°C° 0.5 mm 7 mps 739 mmHg 83%
    20:00 +6°C° 0.5 mm 7 mps 738 mmHg 87%
    21:00 +6°C° 0.8 mm 8 mps 737 mmHg 87%
    22:00 +5°C° 0.8 mm 8 mps 736 mmHg 87%
    23:00 +5°C° 0.8 mm 8 mps 735 mmHg 87%

    27 September, Thursday

    Time Temperature Precipitation Wind Pressure Humidity
    00:00 +5°C° 0.7 mm 8 mps 733 mmHg 87%
    01:00 +5°C° 0.7 mm 8 mps 732 mmHg 87%
    02:00 +5°C° 0.7 mm 9 mps 731 mmHg 88%
    03:00 +5°C° 0.9 mm 8 mps 730 mmHg 88%
    04:00 +6°C° 0.9 mm 8 mps 730 mmHg 89%
    05:00 +6°C° 0.9 mm 8 mps 729 mmHg 89%
    06:00 +6°C° 0.6 mm 7 mps 729 mmHg 86%
    07:00 +7°C° 0.6 mm 6 mps 729 mmHg 82%
    08:00 +7°C° 0.6 mm 6 mps 729 mmHg 79%
    09:00 +8°C° 0.1 mm 6 mps 730 mmHg 74%
    10:00 +8°C° 0.1 mm 7 mps 730 mmHg 70%
    11:00 +8°C° 0.1 mm 7 mps 730 mmHg 65%
    12:00 +8°C° 0.2 mm 7 mps 730 mmHg 64%
    13:00 +9°C° 0.2 mm 8 mps 730 mmHg 62%
    14:00 +9°C° 0.2 mm 8 mps 731 mmHg 60%
    15:00 +8°C° 0.1 mm 7 mps 731 mmHg 62%
    16:00 +8°C° 0.1 mm 6 mps 731 mmHg 63%
    17:00 +7°C° 0.1 mm 5 mps 731 mmHg 65%
    18:00 +7°C° 0 mm 5 mps 732 mmHg 67%
    19:00 +6°C° 0 mm 5 mps 732 mmHg 69%
    20:00 +6°C° 0 mm 5 mps 733 mmHg 71%
    21:00 +5°C° 0 mm 5 mps 733 mmHg 72%
    22:00 +5°C° 0 mm 4 mps 733 mmHg 73%
    23:00 +5°C° 0 mm 4 mps 733 mmHg 74%

    28 September, Friday

    Time Temperature Precipitation Wind Pressure Humidity
    00:00 +4°C° 0 mm 4 mps 733 mmHg 76%
    01:00 +4°C° 0 mm 4 mps 733 mmHg 79%
    02:00 +4°C° 0 mm 4 mps 733 mmHg 82%
    03:00 +4°C° 0 mm 4 mps 733 mmHg 84%
    04:00 +4°C° 0 mm 4 mps 733 mmHg 87%
    05:00 +3°C° 0 mm 3 mps 733 mmHg 89%
    06:00 +4°C° 0.1 mm 4 mps 733 mmHg 88%
    07:00 +5°C° 0.1 mm 4 mps 733 mmHg 87%
    08:00 +5°C° 0.1 mm 4 mps 733 mmHg 86%
    09:00 +6°C° 0.2 mm 5 mps 733 mmHg 81%
    10:00 +7°C° 0.2 mm 5 mps 733 mmHg 76%
    11:00 +8°C° 0.2 mm 6 mps 733 mmHg 72%
    12:00 +8°C° 0.2 mm 6 mps 734 mmHg 69%
    13:00 +8°C° 0.2 mm 5 mps 734 mmHg 66%
    14:00 +8°C° 0.2 mm 5 mps 735 mmHg 64%
    15:00 +7°C° 0 mm 4 mps 735 mmHg 65%
    16:00 +7°C° 0 mm 3 mps 736 mmHg 66%
    17:00 +5°C° 0 mm 3 mps 736 mmHg 67%
    18:00 +6°C° 0 mm 2 mps 737 mmHg 70%
    19:00 +5°C° 0 mm 2 mps 737 mmHg 72%
    20:00 +4°C° 0 mm 2 mps 738 mmHg 75%
    21:00 +4°C° 0.1 mm 2 mps 738 mmHg 79%
    22:00 +4°C° 0.1 mm 2 mps 739 mmHg 82%
    23:00 +3°C° 0.1 mm 2 mps 739 mmHg 86%
    Show more